This is the latest recevied weather packets stored in our database for station/object EA2ESA-13. If no packets are shown the sender has not sent any weather packets the latest 10 day(s).
| Time | Temp. | Humidity | Pressure | Rain* | Wind** | Luminosity | Snow |
|---|---|---|---|---|---|---|---|
| 1778153867 | 21.11° C | 61% | 1015.7 hPa | 0 mm | 0 m/s | - | - |
| 1778153267 | 21.11° C | 61% | 1015.8 hPa | 0 mm | 0 m/s | - | - |
| 1778152665 | 20.56° C | 61% | 1015.9 hPa | 0 mm | 0 m/s | - | - |
| 1778152064 | 20.56° C | 60% | 1016 hPa | 0 mm | 0 m/s | - | - |
| 1778151463 | 20.56° C | 61% | 1016.2 hPa | 0 mm | 0 m/s | - | - |
| 1778150862 | 20° C | 63% | 1016.3 hPa | 0 mm | 0 m/s | - | - |
| 1778150261 | 19.44° C | 64% | 1016.5 hPa | 0 mm | 0 m/s | - | - |
| 1778149660 | 19.44° C | 64% | 1016.6 hPa | 0 mm | 0 m/s | - | - |
| 1778149059 | 18.89° C | 65% | 1016.7 hPa | 0 mm | 0 m/s | - | - |
| 1778148458 | 18.89° C | 66% | 1016.8 hPa | 0 mm | 0 m/s | - | - |
| 1778147857 | 18.33° C | 66% | 1017.1 hPa | 0 mm | 0 m/s | - | - |
| 1778147256 | 18.33° C | 68% | 1017.2 hPa | 0 mm | 0 m/s | - | - |
| 1778146655 | 17.78° C | 69% | 1017.3 hPa | 0 mm | 0 m/s | - | - |
| 1778146054 | 17.78° C | 71% | 1017.4 hPa | 0 mm | 0 m/s | - | - |
| 1778145453 | 17.22° C | 71% | 1017.5 hPa | 0 mm | 0 m/s | - | - |
| 1778144853 | 16.67° C | 72% | 1017.5 hPa | 0 mm | 0 m/s | - | - |
| 1778144252 | 16.67° C | 74% | 1017.4 hPa | 0 mm | 0 m/s | - | - |
| 1778143650 | 15.56° C | 76% | 1017.5 hPa | 0 mm | 0 m/s | - | - |
| 1778143049 | 15° C | 77% | 1017.6 hPa | 0 mm | 0 m/s | - | - |
| 1778142448 | 14.44° C | 78% | 1017.6 hPa | 0 mm | 0 m/s | - | - |
| 1778141847 | 13.89° C | 79% | 1017.7 hPa | 0 mm | 0 m/s | - | - |
| 1778141247 | 13.33° C | 82% | 1017.9 hPa | 0 mm | 0 m/s | - | - |
| 1778140646 | 12.78° C | 84% | 1017.9 hPa | 0 mm | 0 m/s | - | - |
| 1778140045 | 12.22° C | 85% | 1017.9 hPa | 0 mm | 0 m/s | - | - |
| 1778139444 | 11.67° C | 85% | 1018 hPa | 0 mm | 0 m/s | - | - |
* Rain latest hour (hover to see other rain measurements)
** Current wind speed in m/s (hover to see current wind gust speed)